N126HR KPDK-KFLL

Flight info

Callsign N126HR
Flight time 1h 20m
Altitude 41000
Route SOONE WALET ZPLEN TEEKY4
Aircraft GLF5/M-SFGHIRWXY/S

Departure

Time 2026-05-04 18:18
Airport DeKalb Peachtree Airport (KPDK)

Arrival

Time 2026-05-04 19:39
Airport Fort Lauderdale Hollywood International Airport (KFLL)
Time Latitude Longitude Altitude Speed Heading
2026-05-04 17:56 33.88066 -84.30273 986 ft 0 kts 90°
2026-05-04 17:56 33.88065 -84.30273 985 ft 0 kts 90°
2026-05-04 17:57 33.88051 -84.30276 986 ft 0 kts 264°
2026-05-04 18:13 33.88050 -84.30283 986 ft 3 kts 260°
2026-05-04 18:14 33.88022 -84.30297 986 ft 7 kts 150°
2026-05-04 18:14 33.88001 -84.30193 984 ft 8 kts 103°
2026-05-04 18:14 33.88031 -84.30138 983 ft 9 kts 18°
2026-05-04 18:15 33.88170 -84.30075 982 ft 14 kts 21°
2026-05-04 18:15 33.88361 -84.29989 982 ft 12 kts 20°
2026-05-04 18:15 33.88423 -84.29961 981 ft 7 kts 21°
2026-05-04 18:16 33.88458 -84.29913 981 ft 9 kts 92°
2026-05-04 18:16 33.88432 -84.29822 979 ft 9 kts 111°
2026-05-04 18:16 33.88421 -84.29790 978 ft 12 kts 111°
2026-05-04 18:17 33.88376 -84.29721 977 ft 0 kts 201°
2026-05-04 18:17 33.88229 -84.29787 978 ft 64 kts 201°
2026-05-04 18:17 33.87114 -84.30284 1181 ft 149 kts 200°
2026-05-04 18:18 33.86269 -84.30640 1625 ft 174 kts 200°
2026-05-04 18:19 33.83689 -84.31738 2735 ft 215 kts 201°
2026-05-04 18:19 33.82122 -84.32422 3337 ft 262 kts 201°
2026-05-04 18:19 33.80477 -84.33456 3860 ft 268 kts 225°
2026-05-04 18:20 33.79521 -84.35309 4395 ft 264 kts 249°
2026-05-04 18:20 33.78955 -84.37411 4922 ft 265 kts 255°
2026-05-04 18:20 33.78430 -84.39544 5493 ft 266 kts 255°
2026-05-04 18:20 33.77902 -84.41680 5979 ft 271 kts 254°
2026-05-04 18:21 33.76981 -84.43666 6018 ft 275 kts 225°
2026-05-04 18:21 33.75312 -84.44704 6027 ft 277 kts 191°
2026-05-04 18:21 33.73373 -84.44688 6043 ft 277 kts 176°
2026-05-04 18:21 33.71446 -84.44482 6027 ft 276 kts 175°
2026-05-04 18:22 33.69511 -84.44270 6026 ft 276 kts 175°
2026-05-04 18:22 33.67600 -84.44064 6026 ft 276 kts 175°
2026-05-04 18:22 33.65665 -84.43855 6029 ft 276 kts 175°
2026-05-04 18:22 33.63756 -84.43652 6030 ft 277 kts 175°
2026-05-04 18:23 33.61829 -84.43453 6032 ft 276 kts 175°
2026-05-04 18:23 33.59901 -84.43256 6033 ft 277 kts 175°
2026-05-04 18:23 33.57993 -84.43062 6038 ft 277 kts 175°
2026-05-04 18:23 33.56066 -84.42867 6041 ft 277 kts 175°
2026-05-04 18:24 33.54127 -84.42673 6043 ft 276 kts 175°
2026-05-04 18:24 33.52203 -84.42479 6044 ft 276 kts 175°
2026-05-04 18:24 33.50298 -84.42287 6039 ft 277 kts 175°
2026-05-04 18:24 33.48373 -84.42091 6164 ft 273 kts 175°
2026-05-04 18:25 33.46467 -84.41903 6808 ft 275 kts 175°
2026-05-04 18:25 33.44539 -84.41723 7436 ft 280 kts 175°
2026-05-04 18:25 33.42612 -84.41557 8051 ft 283 kts 175°
2026-05-04 18:25 33.40643 -84.41399 8671 ft 285 kts 176°
2026-05-04 18:26 33.38658 -84.41247 9294 ft 288 kts 175°
2026-05-04 18:26 33.36652 -84.41099 9913 ft 289 kts 174°
2026-05-04 18:26 33.34745 -84.40347 10534 ft 303 kts 147°
2026-05-04 18:26 33.32927 -84.38837 11208 ft 336 kts 144°
2026-05-04 18:27 33.30915 -84.37125 11862 ft 364 kts 144°
2026-05-04 18:27 33.28834 -84.35358 12483 ft 371 kts 145°
2026-05-04 18:27 33.26731 -84.33569 13083 ft 373 kts 145°
2026-05-04 18:27 33.24624 -84.31780 13643 ft 376 kts 145°
2026-05-04 18:28 33.22463 -84.29945 14246 ft 381 kts 146°
2026-05-04 18:28 33.20295 -84.28105 14851 ft 387 kts 146°
2026-05-04 18:28 33.18087 -84.26232 15472 ft 393 kts 146°
2026-05-04 18:28 33.15828 -84.24316 16087 ft 399 kts 146°
2026-05-04 18:29 33.13502 -84.22517 16684 ft 403 kts 155°
2026-05-04 18:29 33.10861 -84.21406 17301 ft 405 kts 169°
2026-05-04 18:29 33.08086 -84.20736 17919 ft 410 kts 169°
2026-05-04 18:29 33.05364 -84.19634 18552 ft 416 kts 162°
2026-05-04 18:30 32.99849 -84.17275 19815 ft 424 kts 163°
2026-05-04 18:30 32.97057 -84.16114 20450 ft 428 kts 164°
2026-05-04 18:30 32.94220 -84.14941 21086 ft 430 kts 164°
2026-05-04 18:31 32.91396 -84.13776 21718 ft 434 kts 165°
2026-05-04 18:31 32.88531 -84.12595 22351 ft 437 kts 165°
2026-05-04 18:31 32.85611 -84.11391 22989 ft 442 kts 165°
2026-05-04 18:31 32.82724 -84.10204 23628 ft 445 kts 165°
2026-05-04 18:32 32.79750 -84.08982 24278 ft 449 kts 165°
2026-05-04 18:32 32.76811 -84.07774 24921 ft 452 kts 165°
2026-05-04 18:32 32.73832 -84.06551 25554 ft 458 kts 165°
2026-05-04 18:32 32.70791 -84.05303 26204 ft 461 kts 166°
2026-05-04 18:33 32.67746 -84.04054 26846 ft 465 kts 166°
2026-05-04 18:33 32.64671 -84.02794 27487 ft 469 kts 166°
2026-05-04 18:33 32.61583 -84.01530 28091 ft 474 kts 166°
2026-05-04 18:33 32.58453 -84.00250 28632 ft 479 kts 166°
2026-05-04 18:34 32.55291 -83.98956 29173 ft 481 kts 166°
2026-05-04 18:34 32.52129 -83.97664 29705 ft 482 kts 166°
2026-05-04 18:34 32.48948 -83.96366 30242 ft 488 kts 167°
2026-05-04 18:34 32.45725 -83.95052 30789 ft 494 kts 167°
2026-05-04 18:35 32.42466 -83.93722 31335 ft 494 kts 167°
2026-05-04 18:35 32.39221 -83.92400 31881 ft 493 kts 167°
2026-05-04 18:35 32.35964 -83.91093 32423 ft 491 kts 169°
2026-05-04 18:35 32.32710 -83.89926 32953 ft 488 kts 169°
2026-05-04 18:36 32.29458 -83.88763 33483 ft 489 kts 169°
2026-05-04 18:36 32.26199 -83.87595 34011 ft 489 kts 170°
2026-05-04 18:36 32.22936 -83.86425 34532 ft 488 kts 170°
2026-05-04 18:36 32.19725 -83.85274 35051 ft 489 kts 170°
2026-05-04 18:37 32.16459 -83.84106 35578 ft 491 kts 170°
2026-05-04 18:37 32.13187 -83.82934 36103 ft 492 kts 171°
2026-05-04 18:37 32.09902 -83.81760 36625 ft 493 kts 171°
2026-05-04 18:37 32.06607 -83.80583 37157 ft 493 kts 172°
2026-05-04 18:38 32.03284 -83.79398 37691 ft 496 kts 172°
2026-05-04 18:38 31.99989 -83.78223 38228 ft 498 kts 172°
2026-05-04 18:38 31.96643 -83.77029 38768 ft 499 kts 172°
2026-05-04 18:38 31.93291 -83.75838 39302 ft 501 kts 172°
2026-05-04 18:39 31.89927 -83.74639 39901 ft 501 kts 172°
2026-05-04 18:39 31.86591 -83.73453 40480 ft 498 kts 172°
2026-05-04 18:39 31.83242 -83.72264 41033 ft 495 kts 172°
2026-05-04 18:40 31.76599 -83.69907 41117 ft 497 kts 172°
2026-05-04 18:40 31.69989 -83.67562 41120 ft 491 kts 172°
2026-05-04 18:41 31.63487 -83.65092 41132 ft 493 kts 171°
2026-05-04 18:41 31.56941 -83.62579 41132 ft 495 kts 171°
2026-05-04 18:42 31.50366 -83.60057 41141 ft 496 kts 171°
2026-05-04 18:42 31.43832 -83.57558 41125 ft 495 kts 170°
2026-05-04 18:43 31.37273 -83.55048 41129 ft 494 kts 171°
2026-05-04 18:43 31.30719 -83.52549 41144 ft 495 kts 171°
2026-05-04 18:44 31.24166 -83.50052 41130 ft 496 kts 170°
2026-05-04 18:44 31.17438 -83.47495 41135 ft 515 kts 170°
2026-05-04 18:45 31.10582 -83.44887 41121 ft 516 kts 170°
2026-05-04 18:45 31.03771 -83.42303 41132 ft 513 kts 170°
2026-05-04 18:46 30.96987 -83.39733 41135 ft 511 kts 170°
2026-05-04 18:46 30.90235 -83.37179 41139 ft 511 kts 170°
2026-05-04 18:47 30.83414 -83.34603 41120 ft 511 kts 171°
2026-05-04 18:47 30.76674 -83.32061 41121 ft 509 kts 171°
2026-05-04 18:48 30.69918 -83.29358 41107 ft 518 kts 164°
2026-05-04 18:48 30.63354 -83.25800 41115 ft 519 kts 163°
2026-05-04 18:49 30.56807 -83.22272 41107 ft 516 kts 163°
2026-05-04 18:49 30.50277 -83.18761 41111 ft 515 kts 163°
2026-05-04 18:50 30.43786 -83.15278 41108 ft 517 kts 163°
2026-05-04 18:50 30.37230 -83.11764 41107 ft 516 kts 163°
2026-05-04 18:51 30.30714 -83.08276 41109 ft 515 kts 163°
2026-05-04 18:51 30.24193 -83.04792 41115 ft 516 kts 163°
2026-05-04 18:52 30.17663 -83.01307 41109 ft 515 kts 163°
2026-05-04 18:52 30.11153 -82.97839 41113 ft 514 kts 163°
2026-05-04 18:53 30.04674 -82.94392 41112 ft 514 kts 163°
2026-05-04 18:53 29.98125 -82.90913 41115 ft 515 kts 163°
2026-05-04 18:54 29.91614 -82.87458 41113 ft 514 kts 163°
2026-05-04 18:54 29.85101 -82.84009 41111 ft 514 kts 163°
2026-05-04 18:55 29.78581 -82.80560 41107 ft 513 kts 163°
2026-05-04 18:55 29.68850 -82.75422 41109 ft 514 kts 163°
2026-05-04 18:56 29.62326 -82.71983 41111 ft 514 kts 163°
2026-05-04 18:56 29.55855 -82.68578 41113 ft 513 kts 163°
2026-05-04 18:57 29.49359 -82.65163 41106 ft 511 kts 163°
2026-05-04 18:57 29.42868 -82.61756 41107 ft 512 kts 163°
2026-05-04 18:58 29.36372 -82.58352 41110 ft 514 kts 163°
2026-05-04 18:58 29.29885 -82.54956 41108 ft 513 kts 163°
2026-05-04 18:59 29.26588 -82.53367 41085 ft 502 kts 172°
2026-05-04 18:59 29.23212 -82.52800 41144 ft 480 kts 186°
2026-05-04 18:59 29.16516 -82.52728 41113 ft 481 kts 188°
2026-05-04 19:00 29.09781 -82.52718 41104 ft 479 kts 189°
2026-05-04 19:00 29.03102 -82.52714 41109 ft 478 kts 188°
2026-05-04 19:01 28.96437 -82.52711 41116 ft 482 kts 188°
2026-05-04 19:01 28.89705 -82.52705 41112 ft 478 kts 189°
2026-05-04 19:02 28.83004 -82.52704 41113 ft 479 kts 189°
2026-05-04 19:02 28.76286 -82.52700 41111 ft 480 kts 188°
2026-05-04 19:03 28.69598 -82.52696 41104 ft 478 kts 188°
2026-05-04 19:03 28.62971 -82.52692 41098 ft 478 kts 188°
2026-05-04 19:04 28.56278 -82.52689 41102 ft 479 kts 188°
2026-05-04 19:04 28.49616 -82.52686 41101 ft 478 kts 188°
2026-05-04 19:05 28.42952 -82.52683 41103 ft 478 kts 188°
2026-05-04 19:05 28.36274 -82.52679 41098 ft 477 kts 188°
2026-05-04 19:06 28.29612 -82.52676 41095 ft 477 kts 188°
2026-05-04 19:06 28.22931 -82.52672 41094 ft 477 kts 188°
2026-05-04 19:07 28.16233 -82.52670 41097 ft 478 kts 188°
2026-05-04 19:07 28.09570 -82.52666 41093 ft 478 kts 188°
2026-05-04 19:08 28.02900 -82.52662 41093 ft 477 kts 188°
2026-05-04 19:08 27.99555 -82.52427 41065 ft 491 kts 176°
2026-05-04 19:08 27.96237 -82.51361 41113 ft 499 kts 170°
2026-05-04 19:09 27.89609 -82.49000 41014 ft 499 kts 171°
2026-05-04 19:09 27.86254 -82.47812 40509 ft 503 kts 170°
2026-05-04 19:09 27.82880 -82.46614 40048 ft 502 kts 170°
2026-05-04 19:10 27.79583 -82.45445 39588 ft 500 kts 169°
2026-05-04 19:10 27.76278 -82.44273 39122 ft 497 kts 170°
2026-05-04 19:10 27.74330 -82.43584 38858 ft 497 kts 170°
2026-05-04 19:10 27.71015 -82.42412 38429 ft 498 kts 170°
2026-05-04 19:11 27.67679 -82.41232 38093 ft 499 kts 169°
2026-05-04 19:11 27.64317 -82.40044 38088 ft 499 kts 170°
2026-05-04 19:11 27.57633 -82.37685 38087 ft 501 kts 169°
2026-05-04 19:12 27.54278 -82.36504 37658 ft 508 kts 170°
2026-05-04 19:12 27.47547 -82.34129 36615 ft 502 kts 171°
2026-05-04 19:12 27.44223 -82.32959 36083 ft 502 kts 170°
2026-05-04 19:13 27.40879 -82.31783 35553 ft 505 kts 171°
2026-05-04 19:13 27.37532 -82.30477 34947 ft 517 kts 162°
2026-05-04 19:13 27.34729 -82.28788 34466 ft 527 kts 157°
2026-05-04 19:13 27.31544 -82.26749 33879 ft 530 kts 157°
2026-05-04 19:14 27.28325 -82.24699 33309 ft 533 kts 157°
2026-05-04 19:14 27.25105 -82.22653 32760 ft 534 kts 157°
2026-05-04 19:14 27.21868 -82.20598 32212 ft 532 kts 157°
2026-05-04 19:14 27.18635 -82.18547 31665 ft 532 kts 157°
2026-05-04 19:15 27.15417 -82.16512 31116 ft 532 kts 157°
2026-05-04 19:15 27.12207 -82.14478 30573 ft 534 kts 157°
2026-05-04 19:15 27.08927 -82.12402 30030 ft 535 kts 157°
2026-05-04 19:15 27.05704 -82.10367 29492 ft 535 kts 157°
2026-05-04 19:16 27.02492 -82.08337 28956 ft 535 kts 157°
2026-05-04 19:16 27.00108 -82.06831 28560 ft 535 kts 156°
2026-05-04 19:16 26.96943 -82.04761 28011 ft 538 kts 151°
2026-05-04 19:16 26.94101 -82.01912 27460 ft 548 kts 138°
2026-05-04 19:17 26.91450 -81.98776 26933 ft 550 kts 137°
2026-05-04 19:17 26.89457 -81.96414 26530 ft 549 kts 137°
2026-05-04 19:17 26.86826 -81.93304 25993 ft 548 kts 137°
2026-05-04 19:17 26.84220 -81.90227 25466 ft 548 kts 137°
2026-05-04 19:18 26.81577 -81.87107 24935 ft 547 kts 137°
2026-05-04 19:18 26.78982 -81.84049 24421 ft 548 kts 136°
2026-05-04 19:18 26.76333 -81.80936 23898 ft 548 kts 137°
2026-05-04 19:18 26.73731 -81.77908 23401 ft 546 kts 137°
2026-05-04 19:19 26.71106 -81.74853 23115 ft 544 kts 137°
2026-05-04 19:19 26.68459 -81.71775 23167 ft 545 kts 136°
2026-05-04 19:19 26.65828 -81.68716 23411 ft 533 kts 137°
2026-05-04 19:19 26.63328 -81.65775 22704 ft 515 kts 134°
2026-05-04 19:20 26.61147 -81.62665 22140 ft 515 kts 129°
2026-05-04 19:20 26.58981 -81.59426 21565 ft 518 kts 129°
2026-05-04 19:20 26.56836 -81.56231 21005 ft 521 kts 129°
2026-05-04 19:20 26.54714 -81.53074 20318 ft 484 kts 129°
2026-05-04 19:21 26.52766 -81.50178 19593 ft 455 kts 129°
2026-05-04 19:21 26.50891 -81.47398 19019 ft 443 kts 129°
2026-05-04 19:21 26.48991 -81.44588 18790 ft 466 kts 129°
2026-05-04 19:21 26.47063 -81.41727 18239 ft 451 kts 129°
2026-05-04 19:22 26.45234 -81.39016 17716 ft 436 kts 129°
2026-05-04 19:22 26.43426 -81.36340 17183 ft 422 kts 129°
2026-05-04 19:22 26.41673 -81.33747 16654 ft 410 kts 130°
2026-05-04 19:22 26.39920 -81.31325 16122 ft 399 kts 133°
2026-05-04 19:23 26.38151 -81.28966 15588 ft 390 kts 133°
2026-05-04 19:23 26.36449 -81.26695 15056 ft 382 kts 133°
2026-05-04 19:23 26.34761 -81.24438 14520 ft 378 kts 133°
2026-05-04 19:23 26.33085 -81.22199 14023 ft 374 kts 133°
2026-05-04 19:24 26.31422 -81.19977 13540 ft 371 kts 133°
2026-05-04 19:24 26.29786 -81.17794 13055 ft 368 kts 133°
2026-05-04 19:24 26.28145 -81.15615 12563 ft 365 kts 134°
2026-05-04 19:24 26.26516 -81.13471 12069 ft 359 kts 133°
2026-05-04 19:25 26.24920 -81.11369 11584 ft 354 kts 133°
2026-05-04 19:25 26.23341 -81.09292 11088 ft 351 kts 133°
2026-05-04 19:25 26.21773 -81.07230 10607 ft 346 kts 133°
2026-05-04 19:25 26.20229 -81.05199 10133 ft 342 kts 133°
2026-05-04 19:26 26.18712 -81.03205 10000 ft 337 kts 133°
2026-05-04 19:26 26.17195 -81.01213 10001 ft 338 kts 132°
2026-05-04 19:26 26.15670 -80.99206 9998 ft 340 kts 131°
2026-05-04 19:26 26.14535 -80.96857 9837 ft 346 kts 107°
2026-05-04 19:27 26.14074 -80.94286 9530 ft 333 kts 101°
2026-05-04 19:27 26.13678 -80.91811 9137 ft 325 kts 101°
2026-05-04 19:27 26.13275 -80.89332 8747 ft 318 kts 101°
2026-05-04 19:27 26.12884 -80.86961 8368 ft 312 kts 101°
2026-05-04 19:28 26.12493 -80.84602 7982 ft 306 kts 101°
2026-05-04 19:28 26.12109 -80.82288 7606 ft 301 kts 101°
2026-05-04 19:28 26.11738 -80.80054 7279 ft 295 kts 101°
2026-05-04 19:28 26.11364 -80.77821 6926 ft 289 kts 101°
2026-05-04 19:29 26.10997 -80.75630 6592 ft 287 kts 101°
2026-05-04 19:29 26.10630 -80.73447 6261 ft 284 kts 101°
2026-05-04 19:29 26.10267 -80.71291 5917 ft 283 kts 100°
2026-05-04 19:29 26.09905 -80.69144 5585 ft 281 kts 100°
2026-05-04 19:30 26.09549 -80.67026 5247 ft 278 kts 99°
2026-05-04 19:30 26.09199 -80.64941 4913 ft 275 kts 99°
2026-05-04 19:30 26.08849 -80.62866 4571 ft 271 kts 99°
2026-05-04 19:30 26.08500 -80.60803 4233 ft 268 kts 98°
2026-05-04 19:31 26.08158 -80.58774 4009 ft 266 kts 99°
2026-05-04 19:31 26.07814 -80.56739 4003 ft 267 kts 99°
2026-05-04 19:31 26.07477 -80.54746 3999 ft 258 kts 98°
2026-05-04 19:31 26.07154 -80.52853 3993 ft 241 kts 98°
2026-05-04 19:32 26.06851 -80.51058 4028 ft 232 kts 98°
2026-05-04 19:32 26.06678 -80.49274 4009 ft 228 kts 88°
2026-05-04 19:32 26.06707 -80.47510 4003 ft 226 kts 87°
2026-05-04 19:32 26.06725 -80.45779 4003 ft 225 kts 88°
2026-05-04 19:33 26.06733 -80.44019 4001 ft 223 kts 88°
2026-05-04 19:33 26.06734 -80.42310 4001 ft 223 kts 88°
2026-05-04 19:33 26.06730 -80.40578 4002 ft 222 kts 88°
2026-05-04 19:33 26.06723 -80.38852 3897 ft 225 kts 88°
2026-05-04 19:34 26.06714 -80.37116 3630 ft 221 kts 88°
2026-05-04 19:34 26.06707 -80.35438 3360 ft 215 kts 88°
2026-05-04 19:34 26.06696 -80.33972 3119 ft 210 kts 88°
2026-05-04 19:34 26.06681 -80.32384 2852 ft 205 kts 88°
2026-05-04 19:35 26.06671 -80.30797 2586 ft 203 kts 88°
2026-05-04 19:35 26.06664 -80.29238 2324 ft 202 kts 88°
2026-05-04 19:35 26.06655 -80.27669 2057 ft 200 kts 88°
2026-05-04 19:35 26.06647 -80.26147 1796 ft 199 kts 88°
2026-05-04 19:36 26.06637 -80.24685 1564 ft 176 kts 87°
2026-05-04 19:36 26.06630 -80.23409 1310 ft 157 kts 87°
2026-05-04 19:36 26.06626 -80.22208 1113 ft 156 kts 87°
2026-05-04 19:36 26.06618 -80.21019 915 ft 141 kts 88°
2026-05-04 19:37 26.06613 -80.20450 802 ft 126 kts 87°
2026-05-04 19:37 26.06610 -80.19798 693 ft 122 kts 86°
2026-05-04 19:37 26.06606 -80.18849 550 ft 122 kts 87°
2026-05-04 19:37 26.06601 -80.17904 400 ft 123 kts 87°
2026-05-04 19:38 26.06596 -80.16954 252 ft 123 kts 86°
2026-05-04 19:38 26.06588 -80.15996 86 ft 123 kts 87°
2026-05-04 19:38 26.06584 -80.15076 12 ft 109 kts 88°
2026-05-04 19:38 26.06581 -80.14453 12 ft 53 kts 90°
2026-05-04 19:39 26.06620 -80.14244 13 ft 14 kts 41°
2026-05-04 19:39 26.06674 -80.14236 13 ft 6 kts 331°
2026-05-04 19:39 26.06691 -80.14301 13 ft 12 kts 269°
2026-05-04 19:39 26.06691 -80.14422 12 ft 16 kts 270°
2026-05-04 19:40 26.06692 -80.14551 12 ft 16 kts 270°
2026-05-04 19:40 26.06693 -80.14680 12 ft 16 kts 270°
2026-05-04 19:40 26.06693 -80.14807 12 ft 16 kts 271°
2026-05-04 19:40 26.06694 -80.14932 12 ft 16 kts 270°
2026-05-04 19:41 26.06695 -80.15058 12 ft 16 kts 270°
2026-05-04 19:41 26.06695 -80.15183 12 ft 16 kts 270°
2026-05-04 19:41 26.06697 -80.15308 12 ft 16 kts 271°
2026-05-04 19:41 26.06698 -80.15435 11 ft 16 kts 268°
2026-05-04 19:42 26.06697 -80.15561 11 ft 16 kts 270°
2026-05-04 19:42 26.06698 -80.15691 11 ft 16 kts 270°
2026-05-04 19:42 26.06716 -80.15768 11 ft 10 kts 338°
2026-05-04 19:42 26.06776 -80.15794 11 ft 9 kts 291°
2026-05-04 19:43 26.06806 -80.15853 11 ft 9 kts 323°
2026-05-04 19:43 26.06833 -80.15906 11 ft 0 kts 271°